Weather History for KDDH - September, 2012

Change the Weather History Date:

Thursday, September 6, 2012

  Actual Average Record
Temperature  
Mean Temperature 68 °F 62 °F  
Max Temperature 81 °F 74 °F 86 °F (2014)
Min Temperature 54 °F 51 °F 34 °F (2000)
Degree Days  
Heating Degree Days 0 4  
Month to date heating degree days 0 21  
Since 1 July heating degree days 23 93  
Cooling Degree Days 3 1  
Month to date cooling degree days 23 10  
Year to date cooling degree days 462 298  
Growing Degree Days 16 (Base 50)    
Moisture  
Dew Point 58 °F    
Average Humidity 76    
Maximum Humidity 100    
Minimum Humidity 51    
Precipitation  
Precipitation 0.00 in 0.10 in 2.25 in (2008)
Month to date precipitation 0.52 0.61  
Year to date precipitation 20.48 28.15  
Sea Level Pressure  
Sea Level Pressure 29.88 in    
Wind  
Wind Speed 1 mph (South)    
Max Wind Speed 9 mph    
Max Gust Speed 12 mph    
Visibility 6 miles    
Events Fog    
T = Trace of Precipitation, MM = Missing Value Source: NWS Daily Summary

Daily Weather History Graph

Daily Weather History Graph

Search for Another Location

Airport or City:

Trip Planner

Search our weather history database for the weather conditions in past years. The results will help you decide how hot, cold, wet, or windy it might be!

Date:

Astronomy

Sep. 06, 2012 Rise Set
Actual Time 6:23 AM EDT 7:18 PM EDT
Civil Twilight 5:54 AM EDT 7:46 PM EDT
Nautical Twilight 5:20 AM EDT 8:21 PM EDT
Astronomical Twilight 4:44 AM EDT 8:56 PM EDT
Moon 10:16 PM EDT (9/6) 12:30 PM EDT (9/6)
Length of Visible Light 13h 52m
Length of Day
12h 54m
Waning Gibbous, 67% of the Moon is Illuminated
Sep 6
Waning Gibbous
Sep 8
Last Quarter
Sep 15
New
Sep 22
First Quarter
Sep 29
Full

Hourly Weather History & Observations

Time (EDT) Temp. Heat Index Dew Point Humidity Pressure Visibility Wind Dir Wind Speed Gust Speed Precip Events Conditions
12:24 AM 59.0 °F - 57.2 °F 94% 29.86 in 2.5 mi Calm Calm - N/A   Partly Cloudy
12:35 AM 57.2 °F - 57.2 °F 100% 29.86 in 1.8 mi Calm Calm - N/A   Clear
12:42 AM 59.0 °F - 57.2 °F 94% 29.86 in 4.0 mi Variable 3.5 mph - N/A   Clear
12:54 AM 62.1 °F - 59.0 °F 90% 29.85 in 10.0 mi ESE 3.5 mph - N/A   Clear
1:54 AM 57.9 °F - 55.9 °F 93% 29.87 in 5.0 mi Calm Calm - N/A   Clear
2:16 AM 57.2 °F - 55.4 °F 94% 29.88 in 2.0 mi Calm Calm - N/A   Clear
2:25 AM 57.2 °F - 55.4 °F 94% 29.88 in 9.0 mi Calm Calm - N/A   Clear
2:54 AM 57.0 °F - 55.0 °F 93% 29.87 in 4.0 mi Calm Calm - N/A   Clear
3:48 AM 57.2 °F - 55.4 °F 94% 29.89 in 2.5 mi Calm Calm - N/A   Partly Cloudy
3:54 AM 57.9 °F - 55.9 °F 93% 29.88 in 1.2 mi Calm Calm - N/A   Mostly Cloudy
4:04 AM 57.2 °F - 57.2 °F 100% 29.89 in 0.5 mi Calm Calm - N/A Fog Fog
4:54 AM 55.0 °F - 54.0 °F 96% 29.87 in 0.5 mi Calm Calm - N/A Fog Fog
5:06 AM 55.4 °F - 53.6 °F 94% 29.88 in 1.2 mi Calm Calm - N/A   Scattered Clouds
5:21 AM 55.4 °F - 53.6 °F 94% 29.88 in 1.0 mi Calm Calm - N/A   Mist
5:24 AM 55.4 °F - 53.6 °F 94% 29.88 in 2.0 mi Calm Calm - N/A   Partly Cloudy
5:32 AM 55.4 °F - 55.4 °F 100% 29.89 in 10.0 mi Calm Calm - N/A   Clear
5:46 AM 55.4 °F - 53.6 °F 94% 29.89 in 6.0 mi Calm Calm - 0.01 in   Scattered Clouds
5:50 AM 55.4 °F - 53.6 °F 94% 29.89 in 2.5 mi Calm Calm - 0.01 in   Mostly Cloudy
5:54 AM 55.0 °F - 54.0 °F 96% 29.89 in 0.8 mi Calm Calm - 0.01 in   Mist
6:04 AM 53.6 °F - 53.6 °F 100% 29.90 in 0.2 mi Calm Calm - N/A Fog Fog
6:14 AM 55.4 °F - 53.6 °F 94% 29.91 in 0.8 mi Calm Calm - N/A   Mist
6:19 AM 55.4 °F - 53.6 °F 94% 29.91 in 1.2 mi Calm Calm - N/A   Scattered Clouds
6:27 AM 55.4 °F - 53.6 °F 94% 29.91 in 2.5 mi Calm Calm - N/A   Scattered Clouds
6:39 AM 55.4 °F - 55.4 °F 100% 29.91 in 9.0 mi Calm Calm - N/A   Partly Cloudy
6:54 AM 55.9 °F - 55.0 °F 97% 29.90 in 8.0 mi Calm Calm - N/A   Clear
7:54 AM 57.9 °F - 57.0 °F 97% 29.91 in 10.0 mi Calm Calm - N/A   Clear
8:54 AM 63.0 °F - 60.1 °F 90% 29.91 in 10.0 mi Calm Calm - N/A   Clear
9:54 AM 66.0 °F - 63.0 °F 90% 29.92 in 10.0 mi Calm Calm - N/A   Clear
10:54 AM 70.0 °F - 64.0 °F 81% 29.91 in 10.0 mi Calm Calm - N/A   Clear
11:54 AM 73.9 °F - 63.0 °F 68% 29.88 in 10.0 mi Calm Calm - N/A   Clear
12:54 PM 77.0 °F - 61.0 °F 58% 29.88 in 10.0 mi Calm Calm - N/A   Clear
1:54 PM 80.1 °F 81.2 °F 62.1 °F 54% 29.86 in 10.0 mi Variable 4.6 mph - N/A   Clear
2:54 PM 80.1 °F 81.2 °F 62.1 °F 54% 29.85 in 10.0 mi Variable 3.5 mph - N/A   Clear
3:54 PM 80.1 °F 81.1 °F 61.0 °F 52% 29.84 in 10.0 mi WSW 5.8 mph - N/A   Clear
4:54 PM 80.1 °F 81.5 °F 63.0 °F 56% 29.83 in 10.0 mi South 5.8 mph - N/A   Clear
5:54 PM 79.0 °F - 64.0 °F 60% 29.84 in 10.0 mi SSW 4.6 mph - N/A   Clear
6:54 PM 70.0 °F - 64.9 °F 84% 29.85 in 10.0 mi Calm Calm - N/A   Clear
7:54 PM 72.0 °F - 64.9 °F 78% 29.87 in 10.0 mi Calm Calm - N/A   Mostly Cloudy
8:54 PM 69.1 °F - 64.9 °F 87% 29.88 in 10.0 mi Calm Calm - N/A   Clear
9:54 PM 66.0 °F - 64.0 °F 93% 29.88 in 10.0 mi Calm Calm - N/A   Clear
10:54 PM 64.9 °F - 63.0 °F 93% 29.87 in 10.0 mi Calm Calm - N/A   Clear
11:54 PM 64.0 °F - 63.0 °F 96% 29.88 in 10.0 mi Calm Calm - N/A   Clear